owner,sensor,date,latitude,longitude,air_temperature,qcFlag 
LUMCON,ioos:station:LUMCON:103:1,2011-10-01T00:00:00Z,30.1889,-90.1683,25.6,11111222 
LUMCON,ioos:station:LUMCON:103:1,2011-10-01T01:00:00Z,30.1889,-90.1683,24.7,11111222 
LUMCON,ioos:station:LUMCON:103:1,2011-10-01T02:00:00Z,30.1889,-90.1683,23.9,11111222 
LUMCON,ioos:station:LUMCON:103:1,2011-10-01T03:00:00Z,30.1889,-90.1683,22.9,11111222 
LUMCON,ioos:station:LUMCON:103:1,2011-10-01T04:00:00Z,30.1889,-90.1683,22.1,11111222 
LUMCON,ioos:station:LUMCON:103:1,2011-10-01T05:00:00Z,30.1889,-90.1683,21.3,11111222 
LUMCON,ioos:station:LUMCON:103:1,2011-10-01T06:00:00Z,30.1889,-90.1683,20.4,11111222 
LUMCON,ioos:station:LUMCON:103:1,2011-10-01T07:00:00Z,30.1889,-90.1683,19.6,11111222 
LUMCON,ioos:station:LUMCON:103:1,2011-10-01T08:00:00Z,30.1889,-90.1683,19.2,11111222 
LUMCON,ioos:station:LUMCON:103:1,2011-10-01T09:00:00Z,30.1889,-90.1683,18.7,11111222 
LUMCON,ioos:station:LUMCON:103:1,2011-10-01T10:00:00Z,30.1889,-90.1683,18.0,11111222 
LUMCON,ioos:station:LUMCON:103:1,2011-10-01T11:00:00Z,30.1889,-90.1683,17.5,11111222 
LUMCON,ioos:station:LUMCON:103:1,2011-10-01T12:00:00Z,30.1889,-90.1683,17.2,11111222 
LUMCON,ioos:station:LUMCON:103:1,2011-10-01T13:00:00Z,30.1889,-90.1683,17.9,11111222 
LUMCON,ioos:station:LUMCON:103:1,2011-10-01T14:00:00Z,30.1889,-90.1683,19.4,11111222 
LUMCON,ioos:station:LUMCON:103:1,2011-10-01T15:00:00Z,30.1889,-90.1683,20.3,11111222 
LUMCON,ioos:station:LUMCON:103:1,2011-10-01T16:00:00Z,30.1889,-90.1683,20.9,11111222 
LUMCON,ioos:station:LUMCON:103:1,2011-10-01T17:00:00Z,30.1889,-90.1683,21.8,11111222 
LUMCON,ioos:station:LUMCON:103:1,2011-10-01T18:00:00Z,30.1889,-90.1683,22.3,11111222 
LUMCON,ioos:station:LUMCON:103:1,2011-10-01T19:00:00Z,30.1889,-90.1683,22.9,11111222 
LUMCON,ioos:station:LUMCON:103:1,2011-10-01T20:00:00Z,30.1889,-90.1683,23.5,11111222 
LUMCON,ioos:station:LUMCON:103:1,2011-10-01T21:00:00Z,30.1889,-90.1683,24.0,11111222 
LUMCON,ioos:station:LUMCON:103:1,2011-10-01T22:00:00Z,30.1889,-90.1683,24.3,11111222 
LUMCON,ioos:station:LUMCON:103:1,2011-10-01T23:00:00Z,30.1889,-90.1683,24.0,11111222 
LUMCON,ioos:station:LUMCON:103:1,2011-10-02T00:00:00Z,30.1889,-90.1683,23.0,11111222 
LUMCON,ioos:station:LUMCON:103:1,2011-10-02T01:00:00Z,30.1889,-90.1683,22.3,11111222 
LUMCON,ioos:station:LUMCON:103:1,2011-10-02T02:00:00Z,30.1889,-90.1683,22.2,11111222 
LUMCON,ioos:station:LUMCON:103:1,2011-10-02T03:00:00Z,30.1889,-90.1683,21.8,11111222 
LUMCON,ioos:station:LUMCON:103:1,2011-10-02T04:00:00Z,30.1889,-90.1683,21.1,11111222 
LUMCON,ioos:station:LUMCON:103:1,2011-10-02T05:00:00Z,30.1889,-90.1683,20.1,11111222 
LUMCON,ioos:station:LUMCON:103:1,2011-10-02T06:00:00Z,30.1889,-90.1683,19.2,11111222 
LUMCON,ioos:station:LUMCON:103:1,2011-10-02T07:00:00Z,30.1889,-90.1683,19.0,11111222 
LUMCON,ioos:station:LUMCON:103:1,2011-10-02T08:00:00Z,30.1889,-90.1683,18.3,11111222 
LUMCON,ioos:station:LUMCON:103:1,2011-10-02T09:00:00Z,30.1889,-90.1683,18.0,11111222 
LUMCON,ioos:station:LUMCON:103:1,2011-10-02T10:00:00Z,30.1889,-90.1683,17.6,11111222 
LUMCON,ioos:station:LUMCON:103:1,2011-10-02T11:00:00Z,30.1889,-90.1683,16.9,11111222 
LUMCON,ioos:station:LUMCON:103:1,2011-10-02T12:00:00Z,30.1889,-90.1683,16.3,11111222 
LUMCON,ioos:station:LUMCON:103:1,2011-10-02T13:00:00Z,30.1889,-90.1683,16.2,11111222 
LUMCON,ioos:station:LUMCON:103:1,2011-10-02T14:00:00Z,30.1889,-90.1683,17.2,11111222 
LUMCON,ioos:station:LUMCON:103:1,2011-10-02T15:00:00Z,30.1889,-90.1683,18.2,11111222 
LUMCON,ioos:station:LUMCON:103:1,2011-10-02T16:00:00Z,30.1889,-90.1683,19.0,11111222 
LUMCON,ioos:station:LUMCON:103:1,2011-10-02T17:00:00Z,30.1889,-90.1683,19.4,11111222 
LUMCON,ioos:station:LUMCON:103:1,2011-10-02T18:00:00Z,30.1889,-90.1683,20.0,11111222 
LUMCON,ioos:station:LUMCON:103:1,2011-10-02T19:00:00Z,30.1889,-90.1683,20.6,11111222 
LUMCON,ioos:station:LUMCON:103:1,2011-10-02T20:00:00Z,30.1889,-90.1683,21.2,11111222 
LUMCON,ioos:station:LUMCON:103:1,2011-10-02T21:00:00Z,30.1889,-90.1683,21.9,11111222 
LUMCON,ioos:station:LUMCON:103:1,2011-10-02T22:00:00Z,30.1889,-90.1683,22.1,11111222 
LUMCON,ioos:station:LUMCON:103:1,2011-10-02T23:00:00Z,30.1889,-90.1683,22.1,11111222 
LUMCON,ioos:station:LUMCON:103:1,2011-10-03T00:00:00Z,30.1889,-90.1683,20.9,11111222 
LUMCON,ioos:station:LUMCON:103:1,2011-10-03T01:00:00Z,30.1889,-90.1683,20.6,11111222 
LUMCON,ioos:station:LUMCON:103:1,2011-10-03T02:00:00Z,30.1889,-90.1683,20.1,11111222 
LUMCON,ioos:station:LUMCON:103:1,2011-10-03T03:00:00Z,30.1889,-90.1683,20.0,11111222 
LUMCON,ioos:station:LUMCON:103:1,2011-10-03T04:00:00Z,30.1889,-90.1683,19.1,11111222 
LUMCON,ioos:station:LUMCON:103:1,2011-10-03T05:00:00Z,30.1889,-90.1683,19.3,11111222 
LUMCON,ioos:station:LUMCON:103:1,2011-10-03T06:00:00Z,30.1889,-90.1683,19.0,11111222 
LUMCON,ioos:station:LUMCON:103:1,2011-10-03T07:00:00Z,30.1889,-90.1683,18.8,11111222 
LUMCON,ioos:station:LUMCON:103:1,2011-10-03T08:00:00Z,30.1889,-90.1683,18.3,11111222 
LUMCON,ioos:station:LUMCON:103:1,2011-10-03T09:00:00Z,30.1889,-90.1683,17.3,11111222 
LUMCON,ioos:station:LUMCON:103:1,2011-10-03T10:00:00Z,30.1889,-90.1683,17.2,11111222 
LUMCON,ioos:station:LUMCON:103:1,2011-10-03T11:00:00Z,30.1889,-90.1683,16.6,11111222 
LUMCON,ioos:station:LUMCON:103:1,2011-10-03T12:00:00Z,30.1889,-90.1683,16.8,11111222 
LUMCON,ioos:station:LUMCON:103:1,2011-10-03T13:00:00Z,30.1889,-90.1683,17.3,11111222 
LUMCON,ioos:station:LUMCON:103:1,2011-10-03T14:00:00Z,30.1889,-90.1683,18.8,11111222 
LUMCON,ioos:station:LUMCON:103:1,2011-10-03T15:00:00Z,30.1889,-90.1683,6.0,11111222 
LUMCON,ioos:station:LUMCON:103:1,2011-10-03T16:00:00Z,30.1889,-90.1683,20.4,11111222 
LUMCON,ioos:station:LUMCON:103:1,2011-10-03T17:00:00Z,30.1889,-90.1683,21.2,11111222 
LUMCON,ioos:station:LUMCON:103:1,2011-10-03T18:00:00Z,30.1889,-90.1683,21.6,11111222 
LUMCON,ioos:station:LUMCON:103:1,2011-10-03T19:00:00Z,30.1889,-90.1683,22.2,11111222 
LUMCON,ioos:station:LUMCON:103:1,2011-10-03T20:00:00Z,30.1889,-90.1683,22.4,11111222 
LUMCON,ioos:station:LUMCON:103:1,2011-10-03T21:00:00Z,30.1889,-90.1683,22.8,11111222 
LUMCON,ioos:station:LUMCON:103:1,2011-10-03T22:00:00Z,30.1889,-90.1683,23.1,11111222 
LUMCON,ioos:station:LUMCON:103:1,2011-10-03T23:00:00Z,30.1889,-90.1683,23.2,11111222 
LUMCON,ioos:station:LUMCON:103:1,2011-10-04T00:00:00Z,30.1889,-90.1683,22.5,11111222 
LUMCON,ioos:station:LUMCON:103:1,2011-10-04T14:00:00Z,30.1889,-90.1683,18.9,11111222 
LUMCON,ioos:station:LUMCON:103:1,2011-10-04T15:00:00Z,30.1889,-90.1683,20.5,11111222 
LUMCON,ioos:station:LUMCON:103:1,2011-10-04T16:00:00Z,30.1889,-90.1683,21.8,11111222 
LUMCON,ioos:station:LUMCON:103:1,2011-10-04T17:00:00Z,30.1889,-90.1683,22.7,11111222 
LUMCON,ioos:station:LUMCON:103:1,2011-10-04T18:00:00Z,30.1889,-90.1683,23.3,11111222 
LUMCON,ioos:station:LUMCON:103:1,2011-10-04T19:00:00Z,30.1889,-90.1683,23.7,11111222 
LUMCON,ioos:station:LUMCON:103:1,2011-10-04T20:00:00Z,30.1889,-90.1683,24.2,11111222 
LUMCON,ioos:station:LUMCON:103:1,2011-10-04T21:00:00Z,30.1889,-90.1683,24.7,11111222 
LUMCON,ioos:station:LUMCON:103:1,2011-10-04T22:00:00Z,30.1889,-90.1683,24.9,11111222 
LUMCON,ioos:station:LUMCON:103:1,2011-10-04T23:00:00Z,30.1889,-90.1683,24.6,11111222 
LUMCON,ioos:station:LUMCON:103:1,2011-10-05T00:00:00Z,30.1889,-90.1683,23.7,11111222 
LUMCON,ioos:station:LUMCON:103:1,2011-10-05T01:00:00Z,30.1889,-90.1683,23.1,11111222 
LUMCON,ioos:station:LUMCON:103:1,2011-10-05T02:00:00Z,30.1889,-90.1683,22.3,11111222 
LUMCON,ioos:station:LUMCON:103:1,2011-10-05T03:00:00Z,30.1889,-90.1683,21.7,11111222 
LUMCON,ioos:station:LUMCON:103:1,2011-10-05T04:00:00Z,30.1889,-90.1683,21.4,11111222 
LUMCON,ioos:station:LUMCON:103:1,2011-10-05T05:00:00Z,30.1889,-90.1683,21.1,11111222 
LUMCON,ioos:station:LUMCON:103:1,2011-10-05T06:00:00Z,30.1889,-90.1683,20.8,11111222 
LUMCON,ioos:station:LUMCON:103:1,2011-10-05T07:00:00Z,30.1889,-90.1683,20.5,11111222 
LUMCON,ioos:station:LUMCON:103:1,2011-10-05T08:00:00Z,30.1889,-90.1683,20.2,11111222 
LUMCON,ioos:station:LUMCON:103:1,2011-10-05T09:00:00Z,30.1889,-90.1683,19.7,11111222 
LUMCON,ioos:station:LUMCON:103:1,2011-10-05T10:00:00Z,30.1889,-90.1683,19.3,11111222 
LUMCON,ioos:station:LUMCON:103:1,2011-10-05T11:00:00Z,30.1889,-90.1683,18.9,11111222 
LUMCON,ioos:station:LUMCON:103:1,2011-10-05T12:00:00Z,30.1889,-90.1683,19.0,11111222 
LUMCON,ioos:station:LUMCON:103:1,2011-10-05T14:00:00Z,30.1889,-90.1683,20.8,11111222 
LUMCON,ioos:station:LUMCON:103:1,2011-10-05T15:00:00Z,30.1889,-90.1683,21.9,11111222 
LUMCON,ioos:station:LUMCON:103:1,2011-10-05T16:00:00Z,30.1889,-90.1683,22.9,11111222 
LUMCON,ioos:station:LUMCON:103:1,2011-10-05T17:00:00Z,30.1889,-90.1683,24.0,11111222 
LUMCON,ioos:station:LUMCON:103:1,2011-10-05T18:00:00Z,30.1889,-90.1683,24.7,11111222 
LUMCON,ioos:station:LUMCON:103:1,2011-10-05T19:00:00Z,30.1889,-90.1683,25.0,11111222 
LUMCON,ioos:station:LUMCON:103:1,2011-10-05T20:00:00Z,30.1889,-90.1683,25.5,11111222 
LUMCON,ioos:station:LUMCON:103:1,2011-10-05T21:00:00Z,30.1889,-90.1683,25.7,11111222 
LUMCON,ioos:station:LUMCON:103:1,2011-10-05T22:00:00Z,30.1889,-90.1683,25.6,11111222 
LUMCON,ioos:station:LUMCON:103:1,2011-10-05T23:00:00Z,30.1889,-90.1683,25.3,11111222 
LUMCON,ioos:station:LUMCON:103:1,2011-10-06T00:00:00Z,30.1889,-90.1683,24.7,11111222 
LUMCON,ioos:station:LUMCON:103:1,2011-10-06T01:00:00Z,30.1889,-90.1683,24.3,11111222 
LUMCON,ioos:station:LUMCON:103:1,2011-10-06T02:00:00Z,30.1889,-90.1683,23.9,11111222 
LUMCON,ioos:station:LUMCON:103:1,2011-10-06T03:00:00Z,30.1889,-90.1683,23.7,11111222 
LUMCON,ioos:station:LUMCON:103:1,2011-10-06T04:00:00Z,30.1889,-90.1683,23.6,11111222 
LUMCON,ioos:station:LUMCON:103:1,2011-10-06T05:00:00Z,30.1889,-90.1683,23.5,11111222 
LUMCON,ioos:station:LUMCON:103:1,2011-10-06T06:00:00Z,30.1889,-90.1683,23.5,11111222 
LUMCON,ioos:station:LUMCON:103:1,2011-10-06T07:00:00Z,30.1889,-90.1683,23.4,11111222 
LUMCON,ioos:station:LUMCON:103:1,2011-10-06T08:00:00Z,30.1889,-90.1683,23.4,11111222 
LUMCON,ioos:station:LUMCON:103:1,2011-10-06T09:00:00Z,30.1889,-90.1683,22.7,11111222 
LUMCON,ioos:station:LUMCON:103:1,2011-10-06T10:00:00Z,30.1889,-90.1683,22.5,11111222 
LUMCON,ioos:station:LUMCON:103:1,2011-10-06T11:00:00Z,30.1889,-90.1683,22.3,11111222 
LUMCON,ioos:station:LUMCON:103:1,2011-10-06T12:00:00Z,30.1889,-90.1683,22.1,11111222 
LUMCON,ioos:station:LUMCON:103:1,2011-10-06T13:00:00Z,30.1889,-90.1683,22.4,11111222 
LUMCON,ioos:station:LUMCON:103:1,2011-10-06T15:00:00Z,30.1889,-90.1683,23.9,11111222 
LUMCON,ioos:station:LUMCON:103:1,2011-10-06T16:00:00Z,30.1889,-90.1683,24.7,11111222 
LUMCON,ioos:station:LUMCON:103:1,2011-10-06T17:00:00Z,30.1889,-90.1683,25.1,11111222 
LUMCON,ioos:station:LUMCON:103:1,2011-10-06T18:00:00Z,30.1889,-90.1683,25.4,11111222 
LUMCON,ioos:station:LUMCON:103:1,2011-10-06T19:00:00Z,30.1889,-90.1683,25.6,11111222 
LUMCON,ioos:station:LUMCON:103:1,2011-10-06T20:00:00Z,30.1889,-90.1683,25.7,11111222 
LUMCON,ioos:station:LUMCON:103:1,2011-10-06T21:00:00Z,30.1889,-90.1683,25.6,11111222 
LUMCON,ioos:station:LUMCON:103:1,2011-10-06T22:00:00Z,30.1889,-90.1683,25.4,11111222 
LUMCON,ioos:station:LUMCON:103:1,2011-10-06T23:00:00Z,30.1889,-90.1683,25.1,11111222 
LUMCON,ioos:station:LUMCON:103:1,2011-10-07T00:00:00Z,30.1889,-90.1683,24.6,11111222 
LUMCON,ioos:station:LUMCON:103:1,2011-10-07T01:00:00Z,30.1889,-90.1683,24.6,11111222 
LUMCON,ioos:station:LUMCON:103:1,2011-10-07T02:00:00Z,30.1889,-90.1683,24.2,11111222 
LUMCON,ioos:station:LUMCON:103:1,2011-10-07T03:00:00Z,30.1889,-90.1683,23.9,11111222 
LUMCON,ioos:station:LUMCON:103:1,2011-10-07T04:00:00Z,30.1889,-90.1683,23.6,11111222 
LUMCON,ioos:station:LUMCON:103:1,2011-10-07T05:00:00Z,30.1889,-90.1683,23.4,11111222 
LUMCON,ioos:station:LUMCON:103:1,2011-10-07T06:00:00Z,30.1889,-90.1683,23.2,11111222 
LUMCON,ioos:station:LUMCON:103:1,2011-10-07T07:00:00Z,30.1889,-90.1683,23.0,11111222 
LUMCON,ioos:station:LUMCON:103:1,2011-10-07T08:00:00Z,30.1889,-90.1683,22.5,11111222 
LUMCON,ioos:station:LUMCON:103:1,2011-10-07T09:00:00Z,30.1889,-90.1683,22.4,11111222 
LUMCON,ioos:station:LUMCON:103:1,2011-10-07T10:00:00Z,30.1889,-90.1683,22.5,11111222 
LUMCON,ioos:station:LUMCON:103:1,2011-10-07T11:00:00Z,30.1889,-90.1683,22.6,11111222 
LUMCON,ioos:station:LUMCON:103:1,2011-10-07T12:00:00Z,30.1889,-90.1683,22.6,11111222 
LUMCON,ioos:station:LUMCON:103:1,2011-10-07T13:00:00Z,30.1889,-90.1683,22.7,11111222 
LUMCON,ioos:station:LUMCON:103:1,2011-10-07T14:00:00Z,30.1889,-90.1683,23.1,11111222 
LUMCON,ioos:station:LUMCON:103:1,2011-10-07T15:00:00Z,30.1889,-90.1683,23.7,11111222 
LUMCON,ioos:station:LUMCON:103:1,2011-10-07T16:00:00Z,30.1889,-90.1683,24.9,11111222 
LUMCON,ioos:station:LUMCON:103:1,2011-10-07T17:00:00Z,30.1889,-90.1683,25.4,11111222 
LUMCON,ioos:station:LUMCON:103:1,2011-10-07T18:00:00Z,30.1889,-90.1683,25.6,11111222 
LUMCON,ioos:station:LUMCON:103:1,2011-10-07T19:00:00Z,30.1889,-90.1683,25.7,1111122 
LUMCON,ioos:station:LUMCON:103:1,2011-10-07T20:00:00Z,30.1889,-90.1683,25.5,1111122 
LUMCON,ioos:station:LUMCON:103:1,2011-10-07T21:00:00Z,30.1889,-90.1683,24.9,1111122 
LUMCON,ioos:station:LUMCON:103:1,2011-10-07T22:00:00Z,30.1889,-90.1683,23.7,1111122 
LUMCON,ioos:station:LUMCON:103:1,2011-10-07T23:00:00Z,30.1889,-90.1683,24.9,1111122 
LUMCON,ioos:station:LUMCON:103:1,2011-10-08T00:00:00Z,30.1889,-90.1683,24.6,1111122 
LUMCON,ioos:station:LUMCON:103:1,2011-10-08T01:00:00Z,30.1889,-90.1683,24.5,1111122 
LUMCON,ioos:station:LUMCON:103:1,2011-10-08T02:00:00Z,30.1889,-90.1683,24.3,1111122 
LUMCON,ioos:station:LUMCON:103:1,2011-10-08T03:00:00Z,30.1889,-90.1683,24.0,1111122 
LUMCON,ioos:station:LUMCON:103:1,2011-10-08T04:00:00Z,30.1889,-90.1683,23.9,1111122 
LUMCON,ioos:station:LUMCON:103:1,2011-10-08T05:00:00Z,30.1889,-90.1683,23.5,1111122 
LUMCON,ioos:station:LUMCON:103:1,2011-10-08T06:00:00Z,30.1889,-90.1683,23.7,1111122 
LUMCON,ioos:station:LUMCON:103:1,2011-10-08T07:00:00Z,30.1889,-90.1683,23.4,1111122 
LUMCON,ioos:station:LUMCON:103:1,2011-10-08T08:00:00Z,30.1889,-90.1683,23.1,1111122 
LUMCON,ioos:station:LUMCON:103:1,2011-10-08T09:00:00Z,30.1889,-90.1683,23.0,1111122 
LUMCON,ioos:station:LUMCON:103:1,2011-10-08T10:00:00Z,30.1889,-90.1683,22.7,1111122 
LUMCON,ioos:station:LUMCON:103:1,2011-10-08T11:00:00Z,30.1889,-90.1683,22.6,1111122 
LUMCON,ioos:station:LUMCON:103:1,2011-10-08T12:00:00Z,30.1889,-90.1683,22.5,1111122 
LUMCON,ioos:station:LUMCON:103:1,2011-10-08T13:00:00Z,30.1889,-90.1683,22.9,1111122 
LUMCON,ioos:station:LUMCON:103:1,2011-10-08T14:00:00Z,30.1889,-90.1683,23.7,1111122 
LUMCON,ioos:station:LUMCON:103:1,2011-10-08T15:00:00Z,30.1889,-90.1683,24.2,1111122 
LUMCON,ioos:station:LUMCON:103:1,2011-10-08T16:00:00Z,30.1889,-90.1683,24.9,1111122 
LUMCON,ioos:station:LUMCON:103:1,2011-10-08T17:00:00Z,30.1889,-90.1683,25.3,1111122 
LUMCON,ioos:station:LUMCON:103:1,2011-10-08T18:00:00Z,30.1889,-90.1683,25.3,1111122 
LUMCON,ioos:station:LUMCON:103:1,2011-10-08T19:00:00Z,30.1889,-90.1683,25.5,1111122 
LUMCON,ioos:station:LUMCON:103:1,2011-10-08T20:00:00Z,30.1889,-90.1683,25.5,1111122 
LUMCON,ioos:station:LUMCON:103:1,2011-10-08T21:00:00Z,30.1889,-90.1683,25.4,1111122 
LUMCON,ioos:station:LUMCON:103:1,2011-10-08T22:00:00Z,30.1889,-90.1683,25.2,1111122 
LUMCON,ioos:station:LUMCON:103:1,2011-10-08T23:00:00Z,30.1889,-90.1683,25.0,1111122 
LUMCON,ioos:station:LUMCON:103:1,2011-10-09T00:00:00Z,30.1889,-90.1683,24.7,1111122 
LUMCON,ioos:station:LUMCON:103:1,2011-10-09T01:00:00Z,30.1889,-90.1683,24.6,1111122 
LUMCON,ioos:station:LUMCON:103:1,2011-10-09T02:00:00Z,30.1889,-90.1683,24.6,1111122 
LUMCON,ioos:station:LUMCON:103:1,2011-10-09T03:00:00Z,30.1889,-90.1683,24.6,1111122 
LUMCON,ioos:station:LUMCON:103:1,2011-10-09T04:00:00Z,30.1889,-90.1683,24.3,1111122 
LUMCON,ioos:station:LUMCON:103:1,2011-10-09T05:00:00Z,30.1889,-90.1683,24.2,1111122 
LUMCON,ioos:station:LUMCON:103:1,2011-10-09T06:00:00Z,30.1889,-90.1683,24.1,1111122 
LUMCON,ioos:station:LUMCON:103:1,2011-10-09T07:00:00Z,30.1889,-90.1683,24.3,1111122 
LUMCON,ioos:station:LUMCON:103:1,2011-10-09T09:00:00Z,30.1889,-90.1683,23.6,1111122 
LUMCON,ioos:station:LUMCON:103:1,2011-10-09T10:00:00Z,30.1889,-90.1683,23.5,1111122 
LUMCON,ioos:station:LUMCON:103:1,2011-10-09T11:00:00Z,30.1889,-90.1683,23.0,1111122 
LUMCON,ioos:station:LUMCON:103:1,2011-10-09T12:00:00Z,30.1889,-90.1683,22.7,1111122 
LUMCON,ioos:station:LUMCON:103:1,2011-10-09T13:00:00Z,30.1889,-90.1683,22.7,1111122 
LUMCON,ioos:station:LUMCON:103:1,2011-10-09T14:00:00Z,30.1889,-90.1683,21.8,1111122 
LUMCON,ioos:station:LUMCON:103:1,2011-10-09T15:00:00Z,30.1889,-90.1683,22.7,1111122 
LUMCON,ioos:station:LUMCON:103:1,2011-10-09T16:00:00Z,30.1889,-90.1683,23.3,1111122 
LUMCON,ioos:station:LUMCON:103:1,2011-10-09T17:00:00Z,30.1889,-90.1683,23.9,1111122 
LUMCON,ioos:station:LUMCON:103:1,2011-10-09T18:00:00Z,30.1889,-90.1683,24.4,1111122 
LUMCON,ioos:station:LUMCON:103:1,2011-10-09T19:00:00Z,30.1889,-90.1683,24.5,11111222 
LUMCON,ioos:station:LUMCON:103:1,2011-10-09T20:00:00Z,30.1889,-90.1683,24.7,1111122 
LUMCON,ioos:station:LUMCON:103:1,2011-10-09T21:00:00Z,30.1889,-90.1683,24.7,1111122 
LUMCON,ioos:station:LUMCON:103:1,2011-10-09T22:00:00Z,30.1889,-90.1683,24.5,1111122 
LUMCON,ioos:station:LUMCON:103:1,2011-10-09T23:00:00Z,30.1889,-90.1683,24.4,1111122 
LUMCON,ioos:station:LUMCON:103:1,2011-10-10T00:00:00Z,30.1889,-90.1683,24.2,1111122 
LUMCON,ioos:station:LUMCON:103:1,2011-10-10T01:00:00Z,30.1889,-90.1683,24.0,1111122 
LUMCON,ioos:station:LUMCON:103:1,2011-10-10T02:00:00Z,30.1889,-90.1683,23.7,1111122 
LUMCON,ioos:station:LUMCON:103:1,2011-10-10T03:00:00Z,30.1889,-90.1683,23.9,1111122 
LUMCON,ioos:station:LUMCON:103:1,2011-10-10T04:00:00Z,30.1889,-90.1683,23.6,1111122 
LUMCON,ioos:station:LUMCON:103:1,2011-10-10T05:00:00Z,30.1889,-90.1683,23.2,1111122 
LUMCON,ioos:station:LUMCON:103:1,2011-10-10T06:00:00Z,30.1889,-90.1683,22.8,1111122 
LUMCON,ioos:station:LUMCON:103:1,2011-10-10T07:00:00Z,30.1889,-90.1683,22.5,1111122 
LUMCON,ioos:station:LUMCON:103:1,2011-10-10T08:00:00Z,30.1889,-90.1683,22.1,1111122 
LUMCON,ioos:station:LUMCON:103:1,2011-10-10T09:00:00Z,30.1889,-90.1683,21.7,1111122 
LUMCON,ioos:station:LUMCON:103:1,2011-10-10T10:00:00Z,30.1889,-90.1683,21.3,1111122 
LUMCON,ioos:station:LUMCON:103:1,2011-10-10T11:00:00Z,30.1889,-90.1683,20.9,1111122 
LUMCON,ioos:station:LUMCON:103:1,2011-10-10T12:00:00Z,30.1889,-90.1683,20.4,1111122 
LUMCON,ioos:station:LUMCON:103:1,2011-10-10T13:00:00Z,30.1889,-90.1683,20.2,1111122 
LUMCON,ioos:station:LUMCON:103:1,2011-10-10T14:00:00Z,30.1889,-90.1683,20.7,1111122 
LUMCON,ioos:station:LUMCON:103:1,2011-10-10T15:00:00Z,30.1889,-90.1683,21.4,1111122 
LUMCON,ioos:station:LUMCON:103:1,2011-10-10T16:00:00Z,30.1889,-90.1683,22.3,1111122 
LUMCON,ioos:station:LUMCON:103:1,2011-10-10T17:00:00Z,30.1889,-90.1683,22.9,1111122 
LUMCON,ioos:station:LUMCON:103:1,2011-10-10T18:00:00Z,30.1889,-90.1683,23.0,1111122 
LUMCON,ioos:station:LUMCON:103:1,2011-10-10T19:00:00Z,30.1889,-90.1683,23.3,1111122 
LUMCON,ioos:station:LUMCON:103:1,2011-10-10T21:00:00Z,30.1889,-90.1683,25.0,1111122 
LUMCON,ioos:station:LUMCON:103:1,2011-10-10T22:00:00Z,30.1889,-90.1683,25.5,1111122 
LUMCON,ioos:station:LUMCON:103:1,2011-10-10T23:00:00Z,30.1889,-90.1683,25.3,1111122 
LUMCON,ioos:station:LUMCON:103:1,2011-10-11T00:00:00Z,30.1889,-90.1683,24.3,1111122 
LUMCON,ioos:station:LUMCON:103:1,2011-10-11T14:00:00Z,30.1889,-90.1683,20.5,1111122 
LUMCON,ioos:station:LUMCON:103:1,2011-10-11T15:00:00Z,30.1889,-90.1683,21.4,1111122 
LUMCON,ioos:station:LUMCON:103:1,2011-10-11T16:00:00Z,30.1889,-90.1683,22.1,1111122 
LUMCON,ioos:station:LUMCON:103:1,2011-10-11T17:00:00Z,30.1889,-90.1683,22.7,1111122 
LUMCON,ioos:station:LUMCON:103:1,2011-10-11T18:00:00Z,30.1889,-90.1683,23.8,1111122 
LUMCON,ioos:station:LUMCON:103:1,2011-10-11T19:00:00Z,30.1889,-90.1683,24.4,1111122 
LUMCON,ioos:station:LUMCON:103:1,2011-10-11T20:00:00Z,30.1889,-90.1683,24.9,1111122 
LUMCON,ioos:station:LUMCON:103:1,2011-10-11T21:00:00Z,30.1889,-90.1683,25.2,1111122 
LUMCON,ioos:station:LUMCON:103:1,2011-10-11T22:00:00Z,30.1889,-90.1683,24.9,1111122 
LUMCON,ioos:station:LUMCON:103:1,2011-10-11T23:00:00Z,30.1889,-90.1683,24.2,1111122 
LUMCON,ioos:station:LUMCON:103:1,2011-10-12T00:00:00Z,30.1889,-90.1683,23.7,1111122 
LUMCON,ioos:station:LUMCON:103:1,2011-10-12T01:00:00Z,30.1889,-90.1683,23.5,1111122 
LUMCON,ioos:station:LUMCON:103:1,2011-10-12T02:00:00Z,30.1889,-90.1683,23.4,1111122 
LUMCON,ioos:station:LUMCON:103:1,2011-10-12T03:00:00Z,30.1889,-90.1683,23.1,1111122 
LUMCON,ioos:station:LUMCON:103:1,2011-10-12T04:00:00Z,30.1889,-90.1683,23.0,1111122 
LUMCON,ioos:station:LUMCON:103:1,2011-10-12T05:00:00Z,30.1889,-90.1683,22.9,1111122 
LUMCON,ioos:station:LUMCON:103:1,2011-10-12T06:00:00Z,30.1889,-90.1683,22.5,1111122 
LUMCON,ioos:station:LUMCON:103:1,2011-10-12T07:00:00Z,30.1889,-90.1683,22.3,1111122 
LUMCON,ioos:station:LUMCON:103:1,2011-10-12T08:00:00Z,30.1889,-90.1683,22.0,1111122 
LUMCON,ioos:station:LUMCON:103:1,2011-10-12T09:00:00Z,30.1889,-90.1683,21.9,1111122 
LUMCON,ioos:station:LUMCON:103:1,2011-10-12T10:00:00Z,30.1889,-90.1683,21.8,1111122 
LUMCON,ioos:station:LUMCON:103:1,2011-10-12T11:00:00Z,30.1889,-90.1683,21.6,1111122 
LUMCON,ioos:station:LUMCON:103:1,2011-10-12T12:00:00Z,30.1889,-90.1683,21.6,1111122 
LUMCON,ioos:station:LUMCON:103:1,2011-10-12T13:00:00Z,30.1889,-90.1683,22.1,1111122 
LUMCON,ioos:station:LUMCON:103:1,2011-10-12T14:00:00Z,30.1889,-90.1683,22.5,1111122 
LUMCON,ioos:station:LUMCON:103:1,2011-10-12T15:00:00Z,30.1889,-90.1683,23.2,1111122 
LUMCON,ioos:station:LUMCON:103:1,2011-10-12T16:00:00Z,30.1889,-90.1683,23.3,1111122 
LUMCON,ioos:station:LUMCON:103:1,2011-10-12T17:00:00Z,30.1889,-90.1683,23.7,1111122 
LUMCON,ioos:station:LUMCON:103:1,2011-10-12T18:00:00Z,30.1889,-90.1683,23.9,1111122 
LUMCON,ioos:station:LUMCON:103:1,2011-10-12T19:00:00Z,30.1889,-90.1683,24.4,1111122 
LUMCON,ioos:station:LUMCON:103:1,2011-10-12T20:00:00Z,30.1889,-90.1683,25.1,1111122 
LUMCON,ioos:station:LUMCON:103:1,2011-10-12T21:00:00Z,30.1889,-90.1683,25.3,1111122 
LUMCON,ioos:station:LUMCON:103:1,2011-10-12T22:00:00Z,30.1889,-90.1683,25.7,1111122 
LUMCON,ioos:station:LUMCON:103:1,2011-10-12T23:00:00Z,30.1889,-90.1683,25.4,1111122 
LUMCON,ioos:station:LUMCON:103:1,2011-10-13T00:00:00Z,30.1889,-90.1683,25.1,1111122 
LUMCON,ioos:station:LUMCON:103:1,2011-10-13T01:00:00Z,30.1889,-90.1683,24.9,1111122 
LUMCON,ioos:station:LUMCON:103:1,2011-10-13T02:00:00Z,30.1889,-90.1683,24.8,1111122 
LUMCON,ioos:station:LUMCON:103:1,2011-10-13T03:00:00Z,30.1889,-90.1683,24.2,1111122 
LUMCON,ioos:station:LUMCON:103:1,2011-10-13T04:00:00Z,30.1889,-90.1683,23.9,1111122 
LUMCON,ioos:station:LUMCON:103:1,2011-10-13T05:00:00Z,30.1889,-90.1683,23.4,1111122 
LUMCON,ioos:station:LUMCON:103:1,2011-10-13T06:00:00Z,30.1889,-90.1683,23.4,1111122 
LUMCON,ioos:station:LUMCON:103:1,2011-10-13T07:00:00Z,30.1889,-90.1683,23.4,1111122 
LUMCON,ioos:station:LUMCON:103:1,2011-10-13T08:00:00Z,30.1889,-90.1683,23.6,1111122 
LUMCON,ioos:station:LUMCON:103:1,2011-10-13T09:00:00Z,30.1889,-90.1683,23.8,1111122 
LUMCON,ioos:station:LUMCON:103:1,2011-10-13T10:00:00Z,30.1889,-90.1683,23.5,1111122 
LUMCON,ioos:station:LUMCON:103:1,2011-10-13T11:00:00Z,30.1889,-90.1683,23.4,1111122 
LUMCON,ioos:station:LUMCON:103:1,2011-10-13T12:00:00Z,30.1889,-90.1683,23.2,1111122 
LUMCON,ioos:station:LUMCON:103:1,2011-10-13T13:00:00Z,30.1889,-90.1683,23.5,11111222 
LUMCON,ioos:station:LUMCON:103:1,2011-10-13T14:00:00Z,30.1889,-90.1683,24.0,1111122 
LUMCON,ioos:station:LUMCON:103:1,2011-10-13T15:00:00Z,30.1889,-90.1683,24.9,1111122 
LUMCON,ioos:station:LUMCON:103:1,2011-10-13T16:00:00Z,30.1889,-90.1683,25.5,1111122 
LUMCON,ioos:station:LUMCON:103:1,2011-10-13T17:00:00Z,30.1889,-90.1683,26.1,1111122 
LUMCON,ioos:station:LUMCON:103:1,2011-10-13T18:00:00Z,30.1889,-90.1683,26.9,1111122 
LUMCON,ioos:station:LUMCON:103:1,2011-10-13T19:00:00Z,30.1889,-90.1683,27.2,1111122 
LUMCON,ioos:station:LUMCON:103:1,2011-10-13T20:00:00Z,30.1889,-90.1683,27.4,1111122 